Flag for Germany Weather past 2 weeks in Landshut, Bavaria, Germany

Now
33 °F

Passing clouds.


Feels Like: 28 °F
Forecast: 34 / 42 °F
Wind: 6 mph from West

Location: Muenchen Flughafen

Current Time: Mar 3, 2015 at 6:11:29 AM

Latest Report: Mar 3, 2015 at 5:00 AM


Visibility: 38 mi

Pressure: 30.24 "Hg

Humidity: 76%

Dew point: 27 °F

Location of LandshutLocation

Historic Weather in Landshut — Graph

°F

Landshut temperature yesterday

Maximum temperature yesterday: 47 °F (at 4:00 AM)
Minimum temperature yesterday: 35 °F (at 9:00 PM)
Average temperature yesterday: 43 °F

Past Weeks' High & Low Weather Summary

 TemperatureHumidityPressure
High47 °F (Feb 20, 4:00 PM)100% (Feb 16, 11:00 AM)30.80 "Hg (Feb 16, 11:00 AM)
Low16 °F (Feb 20, 6:00 AM)44% (Feb 27, 3:00 PM)29.50 "Hg (Feb 21, 2:00 PM)
Average34 °F88%30.08 "Hg
* Reported Feb 16 5:00 AM — Mar 3 5:00 AM, Landshut, Weather by CustomWeather, © 2015

Note: Actual official high and low records may vary slightly from our data, if they occured in-between our weather recording intervals... More about our weather records

Advertising

Landshut weather history for previous 24 hours

 ConditionsComfort  
Time TempWeatherWind HumidityBarometerVisibility
5:00 AM
Tue, Mar 3
33 °FPassing clouds.6 mph76%30.24 "Hg37 mi
3:00 AM35 °FClear.8 mph76%30.22 "Hg37 mi
2:00 AM35 °FClear.10 mph78%30.21 "Hg37 mi
1:00 AM36 °FClear.9 mph79%30.18 "Hg31 mi
12:00 AM37 °FOvercast.8 mph80%30.13 "Hg31 mi
11:00 PM
Mon, Mar 2
37 °FOvercast.9 mph82%30.08 "Hg31 mi
10:00 PM38 °FOvercast.10 mph82%30.03 "Hg31 mi
9:00 PM35 °FSprinkles. Low clouds.6 mph94%29.99 "Hg16 mi
8:00 PM38 °FOvercast.8 mph88%29.96 "Hg19 mi
7:00 PM36 °FOvercast.5 mph91%29.96 "Hg19 mi
6:00 PM40 °FPassing clouds.8 mph81%29.90 "Hg28 mi
5:00 PM41 °FOvercast.6 mph83%29.88 "Hg28 mi
4:00 PM41 °FSprinkles. Overcast.10 mph85%29.86 "Hg28 mi
3:00 PM43 °FOvercast.9 mph78%29.83 "Hg28 mi
2:00 PM43 °FSprinkles. Overcast.10 mph71%29.83 "Hg31 mi
1:00 PM43 °FOvercast.9 mph67%29.80 "Hg37 mi
12:00 PM43 °FOvercast.9 mph73%29.79 "Hg37 mi
11:00 AM42 °FOvercast.8 mph82%29.78 "Hg31 mi
10:00 AM42 °FLight rain. Overcast.10 mph85%29.77 "Hg9 mi
9:00 AM45 °FSprinkles. Overcast.8 mph85%29.70 "Hg9 mi
8:00 AM44 °FOvercast.6 mph89%29.68 "Hg28 mi
7:00 AM47 °FOvercast.10 mph86%29.66 "Hg28 mi
6:00 AM47 °FSprinkles. Overcast.16 mph83%29.66 "Hg9 mi
Weather by CustomWeather, © 2015

See weather overviewHow to use our weather pages